If you wish to contribute or participate in the discussions about articles you are invited to join SKYbrary as a registered user

 Actions

Le Puy-Loudes Airport

From SKYbrary Wiki

LFHP
Airport
ICAO: LFHP – IATA: LPY
Summary
Name Le Puy-Loudes Airport
Region Europe
Territory France FR.gif
Location , Auvergne
Serving Le Puy
Elevation 832.409 m
2,731 ft
2,731 ft832.409 m
Type medium airport
Coordinates 45° 4' 50.48" N, 3° 45' 46.40" E
Runways
Designator Length Width Surface ROPS
15/33 1445 m4,740.814 ft
30 m98.425 ft
ASP /
15R/33L 767 m2,516.404 ft
58 m190.289 ft
GRS /


METAR
Observation LFHP 061730Z AUTO 25005KT 210V300 9999 SCT046 BKN056 OVC140 18/08 Q1008
Station Le Puy
Date/Time 06 June 2020 17:30:00
Wind direction 250°
Wind speed 05 kts
Lowest cloud amount scattered clouds
Temperature 18°C
Dew point 8°C
Humidity 52%
QNH 1008 hPa
Weather condition n/a